Location: UMBC
(39.2555°N, 76.7093°W)
Time: 10:45:37
(UTC+01:00)

Amateur Radio Satellites - All Passes

Search period start: 01 November 2014 10:15
Search period end: 02 November 2014 10:15
Location: UMBC, 39.2555°N, 76.7093°W

Satellite Date Start Highest point End Downlink Frequencies (MHz)
Time Altitude Azimuth
TMSAT-1 01 Nov 10:15:39 10:19:58 26° 294° (WNW) 10:24:16 436.925 FM
OPAL 01 Nov 10:18:02 10:23:06 66° 71° (ENE) 10:28:07 ?
Saudisat 1A 01 Nov 10:18:06 10:21:54 29° 114° (ESE) 10:25:43 436.775 MHz
STRAND 1 01 Nov 10:40:05 10:42:10 13° 60° (ENE) 10:44:16 ?
Uosat F 01 Nov 10:42:26 10:47:30 87° 104° (ESE) 10:52:32 435.120 FM
JAS-2 01 Nov 10:46:41 10:53:51 37° 94° (E) 11:00:41 435.800 - 435.900 CW/SSB, 435.910 FM
AO-7 01 Nov 10:50:58 10:59:20 84° 289° (WNW) 11:07:41 29.400 - 29.500 MHz
Hamsat 01 Nov 11:26:47 11:30:43 36° 98° (E) 11:34:39 145.90 MHz
PANSAT 01 Nov 11:27:21 11:29:41 16° 185° (S) 11:32:02 not established
RS-15 01 Nov 11:51:50 12:03:05 83° 242° (WSW) 12:14:49 29.354 - 29.394 USB, Beacon 29.352 USB
Saudisat 1A 01 Nov 11:57:36 12:01:25 28° 310° (NW) 12:05:15 436.775 MHz
OPAL 01 Nov 11:59:49 12:02:22 14° 267° (W) 12:04:55 ?
STRAND 1 01 Nov 12:15:30 12:20:38 82° 256° (WSW) 12:25:49 ?
Uosat F 01 Nov 12:24:02 12:25:31 11° 301° (WNW) 12:27:00 435.120 FM
JAS-2 01 Nov 12:31:27 12:38:52 47° 292° (WNW) 12:46:03 435.800 - 435.900 CW/SSB, 435.910 FM
MaSat-1 01 Nov 12:33:40 12:35:52 28° 61° (ENE) 12:37:59 437.345 MHz
AO-7 01 Nov 12:45:35 12:50:55 19° 308° (NW) 12:56:17 29.400 - 29.500 MHz
Hamsat 01 Nov 13:03:31 13:06:23 18° 293° (WNW) 13:09:15 145.90 MHz
SO-67 01 Nov 13:20:19 13:23:46 73° 283° (WNW) 13:27:11 435.3500 MHz FM
RS-15 01 Nov 14:06:48 14:13:47 19° 261° (W) 14:20:58 29.354 - 29.394 USB, Beacon 29.352 USB
KITSAT 1 01 Nov 14:09:23 14:11:43 11° 98° (E) 14:14:02 435.175 FM
HO-68 01 Nov 14:19:27 14:25:47 32° 97° (E) 14:32:03 435.675 MHz FM
ISS 01 Nov 14:50:56 14:54:09 50° 137° (SE) 14:57:23 145.800 FM
UKube-1 01 Nov 15:12:58 15:16:44 28° 97° (E) 15:20:28 145.840 MHz, 145.915 MHz
ZACube-1 01 Nov 15:24:40 15:27:03 15° 92° (E) 15:29:24 437.345 MHz
Sapphire 01 Nov 15:41:46 15:46:04 23° 49° (NE) 15:50:21 437.095 MHz 1200 baud AX-25 AFSK
Oscar 11 01 Nov 15:46:44 15:51:02 69° 101° (ESE) 15:55:20 145.825 FM, Beacon 2401.500 USB
KITSAT 1 01 Nov 15:57:39 16:05:39 71° 115° (ESE) 16:13:41 435.175 FM
SO-50 01 Nov 15:58:48 16:03:07 51° 117° (ESE) 16:07:35 436.795 FM
PCSat 01 Nov 16:02:56 16:07:55 35° 54° (NE) 16:12:51 145.825 MHz
FUNcube-1 01 Nov 16:05:59 16:10:00 44° 99° (E) 16:13:57 145.950 - 145.970 MHz USB
HO-68 01 Nov 16:06:48 16:13:35 47° 293° (WNW) 16:20:21 435.675 MHz FM
ISS 01 Nov 16:28:19 16:31:01 22° 335° (NNW) 16:33:43 145.800 FM
UOSAT-12 01 Nov 16:40:18 16:42:10 12° 107° (ESE) 16:44:03 437.025 FM, 437.400 FM
UKube-1 01 Nov 16:49:15 16:52:47 25° 292° (WNW) 16:56:18 145.840 MHz, 145.915 MHz
ZACube-1 01 Nov 16:59:43 17:03:39 40° 288° (WNW) 17:07:31 437.345 MHz
Sapphire 01 Nov 17:24:31 17:29:48 53° 247° (WSW) 17:35:03 437.095 MHz 1200 baud AX-25 AFSK
Oscar 11 01 Nov 17:25:41 17:26:37 11° 297° (WNW) 17:27:33 145.825 FM, Beacon 2401.500 USB
SO-50 01 Nov 17:40:38 17:43:59 20° 315° (NW) 17:47:24 436.795 FM
FUNcube-1 01 Nov 17:43:42 17:45:59 15° 295° (WNW) 17:48:15 145.950 - 145.970 MHz USB
PCSat 01 Nov 17:46:29 17:51:13 31° 251° (WSW) 17:55:56 145.825 MHz
KITSAT 1 01 Nov 17:54:53 18:01:43 29° 316° (NW) 18:08:35 435.175 FM
Oscar 16 01 Nov 17:57:46 18:02:04 28° 67° (ENE) 18:06:22 437.025 USB, Beacon 2401.1428
JAS-1B 01 Nov 18:01:56 18:06:47 30° 66° (ENE) 18:11:39 435.800 - 435.900 CW/SSB
ISS 01 Nov 18:08:08 18:08:41 10° 355° (N) 18:09:13 145.800 FM
UOSAT-12 01 Nov 18:17:04 18:21:41 70° 303° (WNW) 18:26:24 437.025 FM, 437.400 FM
AO-Echo 01 Nov 18:24:42 18:28:44 25° 66° (ENE) 18:32:53 ?
Uribyol 2 01 Nov 18:32:41 18:36:54 25° 66° (ENE) 18:41:08 436.500 FM
ITAMSAT 1 01 Nov 18:40:43 18:45:06 28° 67° (ENE) 18:49:31 435.822 SSB
Saudisat 1A 01 Nov 18:45:40 18:49:01 21° 46° (NE) 18:52:22 436.775 MHz
Oscar 19 01 Nov 18:48:43 18:53:51 82° 75° (ENE) 18:59:00 437.125 CW, 437.150 USB
AO-27 01 Nov 19:27:38 19:32:50 79° 75° (ENE) 19:38:06 436.795 MHz FM
Oscar 16 01 Nov 19:36:37 19:41:16 34° 263° (W) 19:45:56 437.025 USB, Beacon 2401.1428
ISS 01 Nov 19:44:49 19:46:33 13° 15° (NNE) 19:48:18 145.800 FM
Gurwin Techsat 1B 01 Nov 19:49:13 19:54:27 65° 73° (ENE) 19:59:44 435.225 FM
JAS-1B 01 Nov 19:52:18 19:57:25 33° 263° (W) 20:02:31 435.800 - 435.900 CW/SSB
TMSAT-1 01 Nov 19:54:58 20:00:06 54° 72° (ENE) 20:05:17 436.925 FM
AO-7 01 Nov 19:58:15 20:04:45 27° 56° (NE) 20:11:14 29.400 - 29.500 MHz
UOSAT-12 01 Nov 20:01:11 20:02:42 11° 323° (NW) 20:04:15 437.025 FM, 437.400 FM
AO-Echo 01 Nov 20:02:40 20:07:16 37° 263° (W) 20:12:02 ?
Uribyol 2 01 Nov 20:11:19 20:16:09 38° 262° (W) 20:21:02 436.500 FM
Uosat F 01 Nov 20:19:15 20:21:29 13° 61° (ENE) 20:23:43 435.120 FM
ITAMSAT 1 01 Nov 20:19:44 20:24:27 34° 263° (W) 20:29:12 435.822 SSB
Saudisat 1A 01 Nov 20:24:34 20:28:48 45° 244° (WSW) 20:33:00 436.775 MHz
Oscar 19 01 Nov 20:32:53 20:33:46 10° 271° (W) 20:34:39 437.125 CW, 437.150 USB
JAS-2 01 Nov 21:00:39 21:03:51 14° 53° (NE) 21:07:11 435.800 - 435.900 CW/SSB, 435.910 FM
AO-27 01 Nov 21:11:18 21:12:55 11° 270° (W) 21:14:33 436.795 MHz FM
ISS 01 Nov 21:20:37 21:23:52 49° 34° (NE) 21:27:07 145.800 FM
Gurwin Techsat 1B 01 Nov 21:32:00 21:34:51 15° 269° (W) 21:37:43 435.225 FM
TMSAT-1 01 Nov 21:36:51 21:40:20 18° 268° (W) 21:43:50 436.925 FM
AO-7 01 Nov 21:48:34 21:56:48 71° 255° (WSW) 22:05:06 29.400 - 29.500 MHz
Uosat F 01 Nov 21:54:34 21:59:36 76° 257° (WSW) 22:04:40 435.120 FM
KITSAT 1 01 Nov 22:00:03 22:00:43 10° 17° (NNE) 22:01:23 435.175 FM
Hamsat 01 Nov 22:19:33 22:22:52 23° 69° (ENE) 22:26:11 145.90 MHz
OPAL 01 Nov 22:30:11 22:33:28 18° 95° (E) 22:36:43 ?
JAS-2 01 Nov 22:41:13 22:47:29 77° 74° (ENE) 22:54:39 435.800 - 435.900 CW/SSB, 435.910 FM
ISS 01 Nov 22:58:03 23:00:18 17° 230° (SW) 23:02:32 145.800 FM
AO-7 01 Nov 23:48:40 23:50:55 11° 272° (W) 23:53:10 29.400 - 29.500 MHz
SO-67 01 Nov 23:51:58 23:54:55 27° 72° (ENE) 23:57:52 435.3500 MHz FM
KITSAT 1 01 Nov 23:52:23 23:59:21 31° 45° (NE) 00:06:17 435.175 FM
Hamsat 01 Nov 23:55:09 23:58:41 26° 264° (W) 00:02:14 145.90 MHz
OPAL 02 Nov 00:07:50 00:12:36 49° 290° (WNW) 00:17:21 ?
RS-15 02 Nov 00:09:02 00:14:00 14° 97° (E) 00:18:56 29.354 - 29.394 USB, Beacon 29.352 USB
STRAND 1 02 Nov 00:27:29 00:32:14 37° 98° (E) 00:36:56 ?
JAS-2 02 Nov 00:29:33 00:33:27 17° 274° (W) 00:37:37 435.800 - 435.900 CW/SSB, 435.910 FM
SO-50 02 Nov 00:31:14 00:35:45 37° 52° (NE) 00:40:17 436.795 FM
HO-68 02 Nov 00:48:02 00:53:22 23° 59° (ENE) 00:58:43 435.675 MHz FM
UOSAT-12 02 Nov 01:09:39 01:11:27 12° 38° (NE) 01:13:15 437.025 FM, 437.400 FM
AO-40 02 Nov 01:21:23 03:31:39 32° 211° (SSW) 08:01:12 Beacon 2401.320
SO-67 02 Nov 01:25:57 01:27:54 14° 267° (W) 01:29:52 435.3500 MHz FM
KITSAT 1 02 Nov 01:47:21 01:55:20 67° 245° (WSW) 02:03:18 435.175 FM
STRAND 1 02 Nov 02:07:02 02:11:13 26° 294° (WNW) 02:15:22 ?
UKube-1 02 Nov 02:07:45 02:11:07 22° 67° (ENE) 02:14:30 145.840 MHz, 145.915 MHz
MaSat-1 02 Nov 02:08:02 02:10:13 15° 107° (ESE) 02:12:19 437.345 MHz
SO-50 02 Nov 02:12:06 02:16:09 27° 248° (WSW) 02:20:12 436.795 FM
RS-15 02 Nov 02:13:21 02:24:18 74° 116° (ESE) 02:35:09 29.354 - 29.394 USB, Beacon 29.352 USB
ZACube-1 02 Nov 02:20:59 02:22:58 13° 64° (ENE) 02:24:56 437.345 MHz
HO-68 02 Nov 02:33:17 02:40:24 69° 256° (WSW) 02:47:36 435.675 MHz FM
Oscar 11 02 Nov 02:40:37 02:44:44 46° 73° (ENE) 02:48:52 145.825 FM, Beacon 2401.500 USB
UOSAT-12 02 Nov 02:47:43 02:52:26 74° 57° (ENE) 02:57:04 437.025 FM, 437.400 FM
FUNcube-1 02 Nov 03:01:07 03:05:10 33° 71° (ENE) 03:09:09 145.950 - 145.970 MHz USB
MaSat-1 02 Nov 03:41:48 03:45:22 35° 298° (WNW) 03:48:36 437.345 MHz
UKube-1 02 Nov 03:43:15 03:47:07 31° 263° (W) 03:51:00 145.840 MHz, 145.915 MHz
KITSAT 1 02 Nov 03:48:00 03:49:12 10° 263° (W) 03:50:25 435.175 FM
ZACube-1 02 Nov 03:54:22 03:58:52 61° 259° (W) 04:03:16 437.345 MHz
Oscar 11 02 Nov 04:18:50 04:21:09 14° 268° (W) 04:23:28 145.825 FM, Beacon 2401.500 USB
RS-15 02 Nov 04:27:54 04:37:37 35° 321° (NW) 04:47:25 29.354 - 29.394 USB, Beacon 29.352 USB
UOSAT-12 02 Nov 04:30:24 04:31:54 11° 253° (WSW) 04:33:24 437.025 FM, 437.400 FM
FUNcube-1 02 Nov 04:38:07 04:41:33 21° 266° (W) 04:44:58 145.950 - 145.970 MHz USB
Sapphire 02 Nov 06:23:09 06:27:18 23° 107° (ESE) 06:31:29 437.095 MHz 1200 baud AX-25 AFSK
PCSat 02 Nov 06:43:38 06:48:36 39° 111° (ESE) 06:53:36 145.825 MHz
RS-15 02 Nov 06:48:02 06:54:44 17° 355° (N) 07:01:30 29.354 - 29.394 USB, Beacon 29.352 USB
Oscar 19 02 Nov 07:01:47 07:06:19 31° 97° (E) 07:10:49 437.125 CW, 437.150 USB
JAS-1B 02 Nov 07:33:52 07:41:11 66° 103° (ESE) 07:49:55 435.800 - 435.900 CW/SSB
AO-27 02 Nov 07:42:14 07:46:50 31° 96° (E) 07:51:22 436.795 MHz FM
Oscar 16 02 Nov 07:48:43 07:53:52 89° 285° (WNW) 07:58:59 437.025 USB, Beacon 2401.1428
Sapphire 02 Nov 08:05:12 08:10:23 47° 303° (WNW) 08:15:37 437.095 MHz 1200 baud AX-25 AFSK
Gurwin Techsat 1B 02 Nov 08:07:00 08:11:33 28° 96° (E) 08:16:04 435.225 FM
AO-Echo 02 Nov 08:10:22 08:15:43 79° 103° (ESE) 08:20:58 ?
TMSAT-1 02 Nov 08:12:32 08:16:43 23° 94° (E) 08:20:53 436.925 FM
Uribyol 2 02 Nov 08:24:40 08:29:54 83° 103° (ESE) 08:35:04 436.500 FM
PCSat 02 Nov 08:27:22 08:32:04 30° 308° (NW) 08:36:49 145.825 MHz
ITAMSAT 1 02 Nov 08:33:04 08:38:19 88° 284° (WNW) 08:43:31 435.822 SSB
Oscar 19 02 Nov 08:41:10 08:45:33 30° 292° (WNW) 08:49:56 437.125 CW, 437.150 USB
RS-15 02 Nov 09:03:37 09:12:38 27° 31° (NNE) 09:21:52 29.354 - 29.394 USB, Beacon 29.352 USB
AO-27 02 Nov 09:21:43 09:26:16 31° 292° (WNW) 09:30:48 436.795 MHz FM
PANSAT 02 Nov 09:22:21 09:24:36 15° 173° (S) 09:26:51 not established
JAS-1B 02 Nov 09:25:37 09:31:23 26° 296° (WNW) 09:37:56 435.800 - 435.900 CW/SSB
Oscar 16 02 Nov 09:31:10 09:32:25 11° 301° (WNW) 09:33:40 437.025 USB, Beacon 2401.1428
OPAL 02 Nov 09:43:39 09:48:03 30° 66° (ENE) 09:52:24 ?
Gurwin Techsat 1B 02 Nov 09:46:44 09:51:30 35° 291° (WNW) 09:56:15 435.225 FM
AO-Echo 02 Nov 09:51:11 09:53:45 14° 299° (WNW) 09:56:18 ?
AO-7 02 Nov 09:51:26 09:59:17 43° 100° (E) 10:07:05 29.400 - 29.500 MHz
TMSAT-1 02 Nov 09:51:49 09:56:46 41° 290° (WNW) 10:01:41 436.925 FM
JAS-2 02 Nov 09:54:18 09:58:08 14° 85° (E) 10:01:51 435.800 - 435.900 CW/SSB, 435.910 FM
Uosat F 02 Nov 10:03:38 10:08:16 36° 98° (E) 10:12:51 435.120 FM
Uribyol 2 02 Nov 10:06:32 10:08:37 12° 300° (WNW) 10:10:42 436.500 FM
